Regional Weather Roundup
Issued by NWS

Home | Current Version | Previous Version | Graphics & Text | Print | Product List | Glossary On
Versions: 1 2 3 4 5 6 7 8 9 10 11 12 13 14 15 16 17 18 19 20 21 22 23 24 25 26 27
000
ASUS45 KPSR 192010
RWRAZ

ARIZONA HOURLY REGIONAL WEATHER ROUNDUP
NATIONAL WEATHER SERVICE PHOENIX AZ
100 PM MST THU JAN 19 2017

NOTE: FAIR INDICATES FEW OR NO CLOUDS BELOW 12,000 FEET WITH NO
SIGNIFICANT WEATHER AND/OR OBSTRUCTIONS TO VISIBILITY.

AZZ001>003-036-192100-
NORTHWEST ARIZONA

CITY           SKY/WX    TMP DP  RH WIND       PRES   REMARKS
BULLHEAD CITY  CLOUDY    52  48  87 S5        29.87F
KINGMAN        LGT RAIN  43  38  82 S14       29.86F
$$

AZZ004>008-015-016-018-192100-
NORTH CENTRAL ARIZONA

CITY           SKY/WX    TMP DP  RH WIND       PRES   REMARKS
GRAND CANYON   SNOW      32  32 100 SW14      29.84F VSB 1/2 WCI  22
WILLIAMS       SNOW      34  30  86 S14G24    29.85F VSB 1/2 WCI  24
PRESCOTT       LGT RAIN  39  37  92 S13       29.90F WCI  31
FLAGSTAFF      LGT SNOW  30  29  96 SW16      29.85F VSB 3/4 WCI  19
PAYSON         CLOUDY    37  36  93 VRB3      29.96F
PAGE           CLOUDY    42  30  62 CALM      29.80F
$$

AZZ009>014-017-192100-
NORTHEAST ARIZONA

CITY           SKY/WX    TMP DP  RH WIND       PRES   REMARKS
WINSLOW        CLOUDY    45  33  63 E6        29.88F
SAINT JOHNS    LGT RAIN  41  33  73 W12G21    29.88F
SHOW LOW       LGT RAIN  32  30  93 S15G25    29.92F WCI  22
$$

AZZ023-192100-
GREATER PHOENIX AREA

CITY           SKY/WX    TMP DP  RH WIND       PRES   REMARKS
PHOENIX        PTSUNNY   55  40  56 S7        29.94F
BUCKEYE        CLOUDY    55  45  67 E8        29.95F
GLENDALE       CLOUDY    54  46  76 CALM      29.96F
LUKE AFB       PTSUNNY   53  45  75 CALM      29.94F
DEER VALLEY    CLOUDY    52  42  69 SE6       29.94F
SCOTTSDALE     CLOUDY    52  39  61 SE7       29.96F
MESA-FALCON    CLOUDY   N/A N/A N/A SE9       29.93F
MESA-GATEWAY   PTSUNNY   54  43  66 E6        29.96F
CHANDLER       PTSUNNY   55  41  58 SE6       29.96F
$$

AZZ027-028-192100-
SOUTHWEST MARICOPA COUNTY AND PINAL COUNTY

CITY           SKY/WX    TMP DP  RH WIND       PRES   REMARKS
CASA GRANDE    PTSUNNY   55  41  59 E12       29.95F
$$

AZZ503-504-507>509-192100-
SOUTHEAST ARIZONA

CITY           SKY/WX    TMP DP  RH WIND       PRES   REMARKS
TUCSON         CLOUDY    55  34  45 E7        29.98F
DAVIS-MONTHAN  PTSUNNY   54  33  45 E7        29.97F
RYAN FIELD     PTSUNNY   55  36  47 E9        29.98F
NOGALES        CLOUDY    53  29  39 S5        29.98F
SIERRA VISTA   CLOUDY    52  25  35 NW14G21   29.99F
DOUGLAS        CLOUDY    54  23  30 W15       29.97F
SAFFORD        CLOUDY    49  39  68 W7        29.96F
$$

AZZ020-021-025-026-031-192100-
SOUTHWEST ARIZONA

CITY           SKY/WX    TMP DP  RH WIND       PRES   REMARKS
YUMA           PTSUNNY   66  50  56 SE17      29.89F
$$

CAZ031-033-041-043-047-048-061-192100-
SOUTHERN CALIFORNIA

CITY           SKY/WX    TMP DP  RH WIND       PRES   REMARKS
DOWNTOWN L.A.  MOSUNNY   62  51  67 VRB7G17   29.93F
L.A. AIRPORT   MOSUNNY   60  53  77 W20       29.93F
SAN DIEGO      PTSUNNY   63  52  67 W10       29.98F
BURBANK        PTSUNNY   58  44  60 SW6       29.92F
ONTARIO        MOSUNNY   58  49  72 W10       29.92F
RIVERSIDE      PTSUNNY   58  52  80 SW12      29.93F
PALM SPRINGS   LGT RAIN  54  52  93 CALM      29.91F
EL CENTRO NAS  LGT RAIN  61  52  72 CALM      29.91F
IMPERIAL       LGT RAIN  61  54  77 W3        29.90F
BLYTHE         CLOUDY    61  48  62 S13       29.89F
NEEDLES        CLOUDY    57  46  66 S13G18    29.86F
$$

NVZ020-UTZ003-192100-
SOUTHERN NEVADA-UTAH

CITY           SKY/WX    TMP DP  RH WIND       PRES   REMARKS
LAS VEGAS      CLOUDY    51  41  68 S13       29.77F
SALT LAKE CITY LGT SNOW  33  32  96 CALM      29.75F FOG
$$

NMZ009-TXZ055-192100-
NEW MEXICO-WEST TEXAS

CITY           SKY/WX    TMP DP  RH WIND       PRES   REMARKS
ALBUQUERQUE    CLOUDY    44  28  53 CALM      29.84F
EL PASO        PTSUNNY   56  30  37 W24G32    29.89F
$$


........................KEY........................
SKY/WX - SKY CONDITION/WEATHER
TMP    - TEMPERATURE IN FAHRENHEIT
DP     - DEW POINT IN FAHRENHEIT
RH     - RELATIVE HUMIDITY IN PERCENT
WIND   - DIRECTION AND SPEED IN MILES PER HOUR (MPH)
VRB    - VARIABLE WIND DIRECTION
PRES   - MEAN SEA LEVEL PRESSURE IN INCHES OF MERCURY
         F - FALLING PRESSURE   R - RISING PRESSURE
         S - STEADY PRESSURE
VSB    - VISIBILITY IN MILES
HX     - HEAT INDEX IN FAHRENHEIT
WCI    - WIND CHILL INDEX IN FAHRENHEIT
TC     - TEMPERATURE IN CELSIUS WHICH IS ALSO KNOWN AS
         TEMPERATURE IN CENTIGRADE
AFB    - AIR FORCE BASE
         LUKE AFB IS LUKE AIR FORCE BASE
         DAVIS-MONTHAN IS DAVIS-MONTHAN AIR FORCE BASE
NAS    - NAVAL AIR STATION
         EL CENTRO NAS IS EL CENTRO NAVAL AIR STATION
N/A    - NOT AVAILABLE





USA.gov is the U.S. government's official web portal to all federal, state and local government web resources and services.